User: anonymous   Login
Location: Street
(51.1247°N, 2.7429°W)
Time: 06:42:20
(UTC+00:00)
Language:

Tiros 1 despin weight - Orbit

View from above orbital plane
View from above orbital plane
View from above satellite
View from above satellite

Ground track
Ground track

The orbit data is extracted from the following two-line orbital elements,

1   115U 60002D   20331.69775206  .00000108  00000-0  39758-4 0  9991
2   115  48.1659 214.0272 0034742 244.3310 115.4012 14.83652039237060
Epoch (UTC): 26 November 2020 16:44:45
Eccentricity: 0.0034742
inclination: 48.1659°
perigee height: 593 km
apogee height: 642 km
right ascension of ascending node: 214.0272°
argument of perigee: 244.3310°
revolutions per day: 14.83652039
mean anomaly at epoch: 115.4012°
orbit number at epoch: 23706

The dashed part of the orbit path shows where the satellite is in the earth's shadow,  

DLR